Theta_e
325 325 324 325 328 326 324 325 323 325 324 323 322 321 317 310 308 307 307 307 306 307 309 311 312 312 308 306 306 305 303 303
324 323 323 325 327 326 327 324 321 319 321 321 319 316 311 308 306 305 305 305 305 305 306 308 309 309 309 306 304 301 300 299
323 322 323 325 324 324 324 323 320 319 318 315 313 310 308 306 305 305 306 307 305 306 306 305 306 307 308 306 304 301 299 298
323 324 324 325 324 323 323 321 323 323 317 313 311 310 308 309 306 307 305 304 302 300 300 301 302 306 306 307 303 298 297 296
323 324 324 324 323 323 321 322 322 320 317 314 312 313 310 306 305 304 303 299 298 297 297 298 297 300 304 305 305 299 297 296
323 323 322 323 323 321 320 321 319 317 316 314 313 309 308 308 307 304 300 299 299 298 296 295 296 298 302 303 304 299 298 297
323 322 322 320 319 319 319 318 316 314 310 312 312 310 310 310 307 305 305 304 300 299 297 295 294 295 300 301 300 299 299 296
320 320 319 317 317 318 316 314 310 309 311 311 311 314 315 312 309 304 303 301 300 300 298 298 300 295 299 301 300 298 296 299
320 319 317 316 317 317 313 310 309 311 312 312 314 314 311 309 306 304 302 301 300 299 300 302 300 297 297 298 299 299 299 296
319 317 316 318 317 313 310 310 311 313 313 313 313 310 311 307 305 303 303 301 300 302 305 304 304 303 299 298 298 298 300 297
319 317 315 316 315 313 310 309 310 312 312 310 309 310 309 306 304 303 301 304 303 304 305 304 303 300 298 298 298 298 299 296
318 316 315 313 310 311 312 310 311 312 310 309 309 308 306 307 308 309 307 305 302 302 301 300 299 297 295 296 297 296 297 296
317 315 313 310 310 310 312 311 311 310 310 310 308 307 307 306 303 301 301 295 297 298 297 298 298 296 296 296 295 295 293 294
316 315 311 310 311 311 311 310 310 309 308 307 306 308 302 298 296 294 294 294 294 294 295 296 295 295 295 295 294 294 294 294
312 312 312 311 311 310 312 312 312 310 307 305 307 303 300 297 296 295 295 297 295 294 294 294 294 295 294 295 294 293 294 296
313 312 312 312 311 310 313 313 313 312 309 303 309 305 303 299 297 298 299 296 293 295 295 294 293 294 294 294 294 295 295 294
314 312 312 313 313 312 314 315 315 311 311 306 308 305 302 301 301 301 301 297 295 295 295 295 295 293 293 293 293 295 293 292
310 309 311 312 312 313 316 313 310 309 308 303 301 302 301 300 300 300 300 300 298 298 297 295 295 294 294 294 295 295 295 294
310 309 311 310 310 312 310 308 306 304 304 303 300 301 300 300 301 301 300 299 299 298 297 292 289 295 295 294 295 295 294 294
305 306 308 309 311 309 309 307 306 305 304 303 303 303 302 302 301 299 299 299 298 294 292 292 286 293 295 294 293 294 294 294
Wind_Speed
10 11 15 10 9 10 10 7 6 6 8 9 9 9 8 7 7 7 7 7 7 8 7 6 6 7 8 7 7 7 7 6
12 13 12 10 10 10 9 7 5 6 8 9 9 9 8 7 6 7 8 6 7 7 7 7 7 6 6 6 6 7 7 6
13 14 12 10 11 10 8 9 7 7 8 8 7 7 7 7 7 7 7 8 7 7 8 7 6 6 4 6 6 7 7 6
15 13 14 12 12 11 9 8 9 8 7 7 6 6 6 7 7 7 7 7 7 7 7 7 7 4 8 10 7 7 6 6
17 15 14 11 11 11 11 10 9 9 10 7 7 6 7 6 6 7 7 6 6 7 6 6 6 4 5 7 9 5 5 6
16 12 10 9 8 8 10 10 9 9 8 7 6 7 7 6 6 7 6 4 5 4 5 5 5 4 2 7 8 6 5 5
13 11 13 11 10 10 11 10 8 8 7 7 6 6 6 6 6 5 4 4 3 4 4 5 5 5 7 3 4 3 4 3
14 12 12 12 9 11 11 9 8 7 7 7 6 5 6 6 6 6 2 2 3 4 3 1 3 4 8 3 3 1 1 2
14 13 12 12 10 10 10 9 7 6 7 6 6 5 6 6 5 3 4 3 3 3 3 2 2 3 5 7 6 1 3 2
13 12 10 9 10 10 10 8 7 6 7 6 6 6 4 4 7 4 3 4 3 3 2 2 2 3 3 5 4 3 2 1
11 12 11 8 8 10 10 7 7 7 7 6 6 6 5 5 5 5 3 4 4 3 3 2 2 1 3 6 7 5 4 2
11 13 11 8 6 7 10 9 7 8 7 6 5 6 4 3 2 2 2 2 2 2 1 1 2 1 2 3 2 3 4 3
12 12 10 9 8 8 8 7 7 7 6 6 5 4 5 3 4 2 2 3 2 2 1 1 1 2 2 3 2 1 2 3
12 11 10 9 9 8 7 7 7 7 6 5 5 4 4 4 4 3 6 5 6 0 5 3 0 1 2 1 1 4 7 5
11 11 10 9 9 8 6 7 7 7 7 6 4 4 4 4 4 4 4 2 2 2 2 4 2 3 1 2 4 5 5 1
10 11 10 9 9 7 7 7 7 6 6 8 6 6 5 5 4 4 3 4 3 2 1 1 2 3 2 3 6 5 3 5
10 10 7 7 7 6 6 6 7 7 6 4 5 5 4 4 4 4 3 3 3 2 1 1 4 4 1 3 1 2 1 1
11 8 7 7 7 6 6 7 6 5 5 7 6 5 4 4 3 3 4 4 4 4 3 3 1 1 1 2 1 1 1 2
8 8 7 7 7 6 6 7 7 5 4 5 7 4 4 4 3 5 4 4 4 4 4 3 5 3 3 3 2 1 1 3
7 6 7 7 8 7 7 7 6 5 4 5 4 5 4 4 4 4 4 4 5 4 3 1 4 2 3 3 2 3 3 3
Wind_Direction
126 114 104 112 122 114 100 83 79 85 91 91 87 84 78 73 68 67 62 62 49 43 49 59 71 69 74 65 72 70 59 49
141 121 125 134 122 116 109 108 94 88 94 89 86 84 86 85 81 78 75 73 74 62 52 57 58 75 83 77 72 62 60 46
133 140 146 125 117 122 126 119 115 106 90 86 89 88 91 91 84 71 65 59 64 71 71 52 52 66 76 79 64 67 56 45
148 147 133 137 140 143 134 130 123 110 96 104 105 110 96 89 82 89 92 85 65 69 60 68 61 63 82 79 83 72 58 55
152 146 144 146 148 144 138 133 129 127 124 124 120 105 86 77 88 81 75 77 83 77 71 77 75 68 96 110 98 86 81 69
141 141 129 126 126 120 123 128 122 120 121 107 97 110 122 118 106 112 106 95 84 79 65 55 64 29 327 126 117 113 91 81
133 137 128 126 133 137 127 115 109 113 111 116 126 134 123 114 109 113 103 102 80 66 54 43 44 13 24 153 98 54 82 85
128 128 121 127 141 135 123 116 115 125 130 133 140 126 121 129 132 118 94 99 109 102 96 95 88 51 26 110 81 67 98 327
124 130 135 134 134 126 119 127 137 134 123 133 135 124 128 130 119 115 132 128 123 147 168 192 118 84 35 66 65 11 280 278
134 130 125 133 130 129 128 128 140 135 132 131 129 138 135 123 126 136 155 156 188 230 227 247 185 139 84 41 42 43 16 59
135 130 126 128 133 137 137 147 142 139 136 145 151 143 137 142 149 153 158 200 205 235 243 263 268 30 35 60 65 32 42 358
134 131 136 130 126 129 140 149 150 143 148 151 153 146 159 181 141 159 154 189 222 250 311 278 291 30 5 357 9 352 353 20
138 136 135 141 139 136 141 148 147 152 149 156 161 171 173 148 85 45 98 75 175 159 184 160 139 291 265 237 237 350 333 298
130 134 135 145 145 147 151 150 151 146 148 161 171 149 134 120 124 90 44 67 41 202 168 141 195 242 261 299 313 304 308 317
136 144 145 149 154 160 163 159 151 155 155 156 137 120 139 161 160 155 160 333 13 65 100 154 157 167 100 60 1 330 14 24
139 141 146 152 156 174 176 166 155 157 163 164 167 169 170 174 174 181 171 176 203 236 230 166 225 157 98 24 16 50 16 22
140 143 145 151 161 192 180 170 163 158 165 175 161 165 179 170 172 197 193 187 210 220 204 327 265 255 286 303 85 105 115 312
132 157 159 160 177 189 178 166 153 151 165 154 148 163 163 184 194 166 186 193 193 205 204 215 236 92 297 284 288 159 257 265
150 156 166 161 181 157 146 146 147 152 152 152 152 142 172 189 180 205 210 192 196 195 211 205 186 173 212 222 238 236 184 250
117 126 166 165 160 152 153 149 141 149 150 152 162 181 192 197 194 189 172 169 167 170 196 194 178 191 188 202 231 236 211 232